Location: Mountain Grove
(34.0887°N, 86.6172°W)
Time: 15:04:05
(UTC+00:00)

Cosmos 1484 Rocket - Pass Details

Date: 14 July 2020
Orbit: 505 x 560 km, 97.4° (Epoch: 13 August)

Event Time Altitude Azimuth Distance (km) Brightness Sun altitude
Rises 09:59:31 0° 21° (NNE) 2,681 7.3 -9.1°
Reaches altitude 10° 10:01:47 10° 30° (NNE) 1,776 6.5 -8.7°
Maximum altitude 10:05:20 36° 98° (E) 831 4.3 -8.1°
Drops below altitude 10° 10:08:49 10° 166° (SSE) 1,736 5.2 -7.5°
Sets 10:11:00 0° 175° (S) 2,610 6.0 -7.1°
